Location: Te Maire Creek
(41.1333°S, 175.9167°E)
Time: 22:49:55
(UTC+00:00)

Cosmos 1758 Rocket - Pass Details

Date: 19 May 2024
Orbit: 598 x 633 km, 82.5° (Epoch: 22 June)

Event Time Altitude Azimuth Distance (km) Brightness Sun altitude
Rises 18:19:32 0° 183° (S) 2,902 6.8 -11.8°
Reaches altitude 10° 18:21:49 10° 178° (S) 1,994 6.0 -11.4°
Maximum altitude 18:26:08 53° 101° (E) 770 4.4 -10.6°
Drops below altitude 10° 18:30:26 10° 23° (NNE) 1,986 6.8 -9.8°
Sets 18:32:42 0° 18° (NNE) 2,889 7.6 -9.4°
